User: anonymous   Login
Location: Notre Dame Regional High School Observatory
(37.3056°N, 89.6097°W)
Time: 05:05:43
(UTC-06:00)
Language:

ATLAS 3B R/B - Orbit

View from above orbital plane
View from above orbital plane
View from above satellite
View from above satellite

Ground track
Ground track

The orbit data is extracted from the following two-line orbital elements,

1 28538U 05004B   14329.19754353 0.00000100  00000-0  15383-3 0    08
2 28538  63.8180 134.2587 0208000 237.7261 122.2739 13.43040992    03
Epoch (UTC): 25 November 2014 04:44:27
Eccentricity: 0.0208000
inclination: 63.8180°
perigee height: 942 km
apogee height: 1253 km
right ascension of ascending node: 134.2587°
argument of perigee: 237.7261°
revolutions per day: 13.43040992
mean anomaly at epoch: 122.2739°
orbit number at epoch: 0

The dashed part of the orbit path shows where the satellite is in the earth's shadow,  

DLR